sat.trackr.live / text

‹ back to catalog

STARLINK-37339

NORAD 68735 · 2026-082H

PAYLOAD ACTIVE UNKNOWN

§ Identity

Operator
Country
US
Launch date
2026-04-15
Launch site
AFWTR
Launch vehicle
Mass (kg)
RCS (m²)

Purposes: comms

External: N2YO · Heavens-Above · Gunter

§ Orbital elements

Epoch: 2026-09-19T21:03:18.558432Z

Period
93.91 min
Inclination
97.2840°
Eccentricity
0.0003219
Mean motion
15.33458061 rev/d
Perigee alt
463.3 km
Apogee alt
467.7 km
Semi-major
6,843.6 km
B*
3.5227e-4
RAAN
125.0888°
Arg perigee
98.4181°
Mean anomaly
261.7427°
Rev number
2,421

§ Raw data

STARLINK-373391 68735U 26082H   26262.87729813  .00011320  00000+0  35227-3 0  99982 68735  97.2840 125.0888 0003219  98.4181 261.7427 15.33458061 24213

JSON: /api/v1/satellites/68735 · /tle

For live sub-satellite position, see the globe view (requires WebGL).

§ Visibility from observer

Set your observer location to see the next 7 days of passes ≥ 10°. The values pass through the URL so the page stays shareable.

No JS? Fill the form by hand. The geolocation button needs JavaScript.